Weather History for Thermopolis, WY

Change the Weather History Date:

Tuesday, November 20, 2012

  Actual Average (KWRL) Record (KWRL)
Temperature  
Mean Temperature 38 °F 28 °F  
Max Temperature 44 °F 41 °F 66 °F (1962)
Min Temperature 32 °F 15 °F -17 °F (1977)
Degree Days  
Heating Degree Days 27 37  
Month to date heating degree days 628  
Since 1 July heating degree days 1490  
Cooling Degree Days 0 0  
Month to date cooling degree days 0  
Year to date cooling degree days 535  
Moisture  
Dew Point 29 °F    
Average Humidity 68    
Maximum Humidity 87    
Minimum Humidity 57    
Precipitation  
Precipitation 0.00 in 0.01 in 0.06 in (2013)
Month to date precipitation 0.25  
Year to date precipitation 7.24  
Sea Level Pressure  
Sea Level Pressure 30.18 in    
Wind  
Wind Speed 15 mph ()    
Max Wind Speed 25 mph    
Max Gust Speed 31 mph    
Visibility 10.0 miles    
Events      
T = Trace of Precipitation, MM = Missing Value Source: Averaged Metar Reports

Daily Weather History Graph

Daily Weather History Graph

Search for Another Location

Airport:

Trip Planner

Search our weather history database for the weather conditions in past years. The results will help you decide how hot, cold, wet, or windy it might be!

Date:

Astronomy

Nov. 20, 2012 Rise Set
Actual Time 7:13 AM MST 4:43 PM MST
Civil Twilight 6:42 AM MST 5:14 PM MST
Nautical Twilight 6:07 AM MST 5:49 PM MST
Astronomical Twilight 5:33 AM MST 6:23 PM MST
Moon 12:43 PM MST (11/20) No Moon Set
Length of Visible Light 10h 32m
Length of Day
9h 29m
First Quarter, 52% of the Moon is Illuminated
Nov 20
First Quarter
Nov 28
Full
Dec 6
Last Quarter
Dec 13
New
Dec 19
First Quarter

Hourly Weather History & Observations

Time (MST) Temp. Windchill Dew Point Humidity Pressure Visibility Wind Dir Wind Speed Gust Speed Precip Events Conditions
12:15 AM 35.6 °F 26.6 °F 26.6 °F 70% 30.22 in 10.0 mi South 13.8 mph 20.7 mph N/A   Clear
12:35 AM 35.6 °F 25.9 °F 26.6 °F 70% 30.22 in 10.0 mi SSW 16.1 mph 21.9 mph N/A   Clear
12:55 AM 37.4 °F 27.8 °F 26.6 °F 65% 30.22 in 10.0 mi South 17.3 mph 25.3 mph N/A   Clear
1:35 AM 35.6 °F 23.7 °F 26.6 °F 70% 30.20 in 10.0 mi South 24.2 mph 29.9 mph N/A   Clear
5:35 AM 37.4 °F 27.5 °F 26.6 °F 65% 30.21 in 10.0 mi SSW 18.4 mph 23.0 mph N/A   Clear
5:55 AM 37.4 °F 27.8 °F 28.4 °F 70% 30.21 in 10.0 mi South 17.3 mph 25.3 mph N/A   Clear
6:15 AM 37.4 °F 28.9 °F 28.4 °F 70% 30.22 in 10.0 mi South 13.8 mph 31.1 mph N/A   Clear
6:35 AM 35.6 °F 28.6 °F 28.4 °F 75% 30.22 in 10.0 mi SSE 9.2 mph 17.3 mph N/A   Clear
6:55 AM 37.4 °F 29.3 °F 28.4 °F 70% 30.21 in 10.0 mi SSE 12.7 mph 25.3 mph N/A   Clear
7:15 AM 35.6 °F 24.2 °F 28.4 °F 75% 30.21 in 10.0 mi South 21.9 mph 29.9 mph N/A   Clear
7:35 AM 35.6 °F 26.2 °F 28.4 °F 75% 30.21 in 10.0 mi SSE 15.0 mph 23.0 mph N/A   Clear
7:55 AM 33.8 °F 23.9 °F 26.6 °F 75% 30.22 in 10.0 mi SSE 15.0 mph - N/A   Clear
8:15 AM 35.6 °F 26.6 °F 28.4 °F 75% 30.22 in 10.0 mi SSE 13.8 mph 24.2 mph N/A   Clear
8:35 AM 32.0 °F 22.5 °F 28.4 °F 87% 30.23 in 10.0 mi SE 12.7 mph - N/A   Clear
8:55 AM 33.8 °F 25.3 °F 28.4 °F 81% 30.24 in 10.0 mi SE 11.5 mph - N/A   Clear
9:15 AM 35.6 °F 27.1 °F 28.4 °F 75% 30.24 in 10.0 mi SE 12.7 mph - N/A   Clear
9:35 AM 35.6 °F 27.5 °F 28.4 °F 75% 30.24 in 10.0 mi SE 11.5 mph - N/A   Clear
10:15 AM 35.6 °F 26.6 °F 28.4 °F 75% 30.24 in 10.0 mi SE 13.8 mph - N/A   Clear
10:35 AM 37.4 °F 28.2 °F 28.4 °F 70% 30.24 in 10.0 mi SE 16.1 mph - N/A   Clear
10:55 AM 37.4 °F 30.8 °F 28.4 °F 70% 30.26 in 10.0 mi SSE 9.2 mph - N/A   Clear
11:15 AM 37.4 °F 28.2 °F 30.2 °F 75% 30.25 in 10.0 mi ESE 16.1 mph - N/A   Clear
11:35 AM 37.4 °F 28.9 °F 30.2 °F 75% 30.25 in 10.0 mi SE 13.8 mph - N/A   Clear
11:55 AM 37.4 °F 28.5 °F 28.4 °F 70% 30.22 in 10.0 mi SE 15.0 mph - N/A   Clear
12:15 PM 41.0 °F 31.9 °F 28.4 °F 61% 30.20 in 10.0 mi SE 19.6 mph - N/A   Clear
12:35 PM 41.0 °F 31.6 °F 30.2 °F 65% 30.20 in 10.0 mi SE 20.7 mph - N/A   Clear
12:55 PM 41.0 °F 31.4 °F 28.4 °F 61% 30.19 in 10.0 mi SE 21.9 mph - N/A   Clear
1:15 PM 42.8 °F 33.8 °F 30.2 °F 61% 30.19 in 10.0 mi SE 21.9 mph - N/A   Clear
1:35 PM 42.8 °F 34.3 °F 30.2 °F 61% 30.18 in 10.0 mi SE 19.6 mph - N/A   Clear
1:55 PM 44.6 °F 35.7 °F 30.2 °F 57% 30.17 in 10.0 mi SE 24.2 mph - N/A   Clear
2:15 PM 44.6 °F 35.5 °F 30.2 °F 57% 30.17 in 10.0 mi SE 25.3 mph 29.9 mph N/A   Clear
2:35 PM 42.8 °F 33.8 °F 32.0 °F 66% 30.17 in 10.0 mi SE 21.9 mph - N/A   Clear
2:55 PM 42.8 °F 34.3 °F 32.0 °F 66% 30.17 in 10.0 mi SE 19.6 mph - N/A   Clear
3:15 PM 42.8 °F 34.0 °F 32.0 °F 66% 30.16 in 10.0 mi SE 20.7 mph - N/A   Clear
3:35 PM 42.8 °F 34.0 °F 32.0 °F 66% 30.16 in 10.0 mi SE 20.7 mph - N/A   Clear
3:55 PM 44.6 °F 36.6 °F 32.0 °F 61% 30.16 in 10.0 mi SE 19.6 mph - N/A   Clear
4:15 PM 42.8 °F 34.8 °F 32.0 °F 66% 30.16 in 10.0 mi ESE 17.3 mph - N/A   Clear
4:35 PM 42.8 °F 34.8 °F 32.0 °F 66% 30.17 in 10.0 mi ESE 17.3 mph - N/A   Clear
4:55 PM 42.8 °F 34.5 °F 32.0 °F 66% 30.17 in 10.0 mi SE 18.4 mph - N/A   Clear
5:15 PM 42.8 °F 34.8 °F 32.0 °F 66% 30.16 in 10.0 mi SE 17.3 mph - N/A   Clear
5:35 PM 42.8 °F 35.4 °F 32.0 °F 66% 30.17 in 10.0 mi SE 15.0 mph - N/A   Clear
5:55 PM 42.8 °F 35.4 °F 32.0 °F 66% 30.16 in 10.0 mi ESE 15.0 mph - N/A   Clear
6:15 PM 42.8 °F 36.6 °F 30.2 °F 61% 30.16 in 10.0 mi SE 11.5 mph 16.1 mph N/A   Clear
6:35 PM 41.0 °F 33.1 °F 30.2 °F 65% 30.16 in 10.0 mi ESE 15.0 mph - N/A   Clear
6:55 PM 41.0 °F 33.9 °F 32.0 °F 70% 30.16 in 10.0 mi SE 12.7 mph - N/A   Clear
7:15 PM 41.0 °F 31.6 °F 32.0 °F 70% 30.14 in 10.0 mi SE 20.7 mph - N/A   Clear
7:35 PM 39.2 °F 29.6 °F 32.0 °F 75% 30.14 in 10.0 mi ESE 19.6 mph - N/A   Clear
7:55 PM 39.2 °F 30.8 °F 32.0 °F 75% 30.14 in 10.0 mi ESE 15.0 mph - N/A   Clear
8:15 PM 39.2 °F 29.6 °F 30.2 °F 70% 30.13 in 10.0 mi ESE 19.6 mph - N/A   Clear
8:35 PM 39.2 °F 29.0 °F 30.2 °F 70% 30.12 in 10.0 mi ESE 21.9 mph - N/A   Clear
8:55 PM 39.2 °F 28.5 °F 28.4 °F 65% 30.12 in 10.0 mi ESE 24.2 mph - N/A   Clear
9:15 PM 39.2 °F 29.6 °F 28.4 °F 65% 30.12 in 10.0 mi SE 19.6 mph - N/A   Clear
9:35 PM 39.2 °F 30.2 °F 26.6 °F 61% 30.12 in 10.0 mi SE 17.3 mph - N/A   Clear
9:55 PM 39.2 °F 32.0 °F 26.6 °F 61% 30.13 in 10.0 mi SE 11.5 mph - N/A   Clear
10:15 PM 39.2 °F 33.0 °F 26.6 °F 61% 30.13 in 10.0 mi SE 9.2 mph - N/A   Clear
10:35 PM 39.2 °F 33.6 °F 26.6 °F 61% 30.12 in 10.0 mi SSE 8.1 mph - N/A   Clear
11:15 PM 37.4 °F 32.1 °F 28.4 °F 70% 30.12 in 10.0 mi SSE 6.9 mph - N/A   Clear
11:35 PM 39.2 °F 33.6 °F 28.4 °F 65% 30.11 in 10.0 mi SE 8.1 mph - N/A   Clear
11:55 PM 37.4 °F 30.3 °F 28.4 °F 70% 30.11 in 10.0 mi SE 10.4 mph - N/A   Clear